Regional Weather Roundup
Issued by NWS Bismarck, ND

Home | Current Version | Previous Version | Text Only | Print | Product List | Glossary On
Versions: 1 2 3 4 5 6 7 8 9 10 11 12 13 14 15 16 17 18 19 20 21 22 23 24 25 26 27 28 29 30 31 32 33 34 35 36 37 38 39 40 41 42 43 44 45 46 47 48 49 50
000
ASUS43 KBIS 180520
RWRBIS

NWR BROADCAST TEXT
NATIONAL WEATHER SERVICE BISMARCK ND
1200 AM CDT THU SEP 18 2014

NOTE: "FAIR" INDICATES FEW OR NO CLOUDS BELOW 12,000 FEET WITH NO
SIGNIFICANT WEATHER AND/OR OBSTRUCTIONS TO VISIBILITY.


CITY           SKY/WX    TMP DP  RH WIND       PRES   REMARKS
WILLISTON      CLEAR     59  46  62 CALM      29.90F
MINOT          CLEAR     49  46  90 E8        29.98S
MINOT AFB      CLEAR     47  47  99 SE8       29.97F
BISMARCK       CLEAR     51  47  86 NE9       29.99S
DICKINSON      CLEAR     55  47  74 SE12      29.94S
GARRISON         N/A     54  52  93 E8        29.97S
HETTINGER ARPT CLEAR     54  47  77 SE8       29.97S
JAMESTOWN      CLEAR     49  46  90 E7        30.00F
BEACH            N/A     55  52  88 SE12      29.91F
CARRINGTON     FAIR      46  46 100 SE6       30.03S
CROSBY         FAIR      46  46 100 E7        29.93S
HARVEY         FAIR      46  46 100 E8        30.01S
HAZEN          FAIR      48  45  87 CALM      29.97S
LINTON         FAIR      52  46  82 SE7       29.99S
MANDAN         FAIR      54  46  76 SE6       29.99F
OAKES            N/A     50  50 100 NE9       30.00F
RUGBY          FAIR      46  45  93 E12       30.01S
STANLEY        FAIR      50  50 100 SE9       29.95S
TIOGA          FAIR      52  52 100 SE9       29.97S
WATFORD CITY   FAIR      50  46  87 SE5       29.90S
$$

CITY           SKY/WX    TMP DP  RH WIND       PRES   REMARKS
GRAND FORKS    CLEAR     47  43  86 NE7       30.04F
GRAND FORKS AF CLEAR     42  42  99 NE5       30.06S
DEVILS LAKE    CLEAR     46  39  76 E8        30.02S
FARGO          CLEAR     50  46  86 N5        30.01F
CANDO          FAIR      43  39  87 E8        30.04S
CAVALIER       FAIR      41  39  93 CALM      30.08S
GRAFTON        FAIR      41  39  93 NE5       30.06S
GWINNER        CLEAR     52  50  93 N6        30.01F
LANGDON        FAIR      41  39  93 E10       30.05S
ROLLA          FAIR      39  39 100 SE6       30.05S
WALHALLA       FAIR      39  39 100 CALM      30.08S
$$

CITY           SKY/WX    TMP DP  RH WIND       PRES   REMARKS
ABERDEEN       CLEAR     50  48  93 NE5       29.99S
MOBRIDGE       CLEAR     53  47  79 SE6       29.96R
BUFFALO          N/A     59  50  72 SE10      29.89F
RAPID CITY     CLEAR     58  51  78 S3        29.99S
GLASGOW        CLEAR     61  46  57 E17       29.78F
SIDNEY         PTCLDY    57  46  67 S3        29.89F
WOLF POINT     CLEAR     60  45  57 NE8       29.82F
GLENDIVE       MOCLDY    61  50  67 SE7       29.88F
MILES CITY     CLOUDY    68  51  54 SE17G23   29.84S
BAKER          CLEAR     54  50  86 SE9       29.92F
$$

CITY           SKY/WX    TMP DP  RH WIND       PRES   REMARKS
BILLINGS       PTCLDY    69  48  47 S7        29.89F
GREAT FALLS    CLOUDY    69  48  47 S8        29.77S
REGINA         CLEAR     50  48  93 SE17      29.88F
ESTEVAN        PTCLDY    48  45  87 E12       29.95S
$$



USA.gov is the U.S. government's official web portal to all federal, state and local government web resources and services.